Location: Maiden
(35.5760°N, 81.2120°W)
Time: 02:20:10
(UTC-04:00)

A-11 Canister half - Pass Details

Date: 09 August 2020
Orbit: 1527 x 1682 km, 47.3° (Epoch: 25 September)

Event Time Altitude Azimuth Distance (km) Brightness Sun altitude
Rises 17:13:32 0° 293° (WNW) 4,936 12.4 36.6°
Reaches altitude 10° 17:16:57 10° 300° (WNW) 3,943 12.0 35.9°
Maximum altitude 17:26:36 46° 12° (NNE) 2,128 10.0 33.9°
Drops below altitude 10° 17:36:00 10° 83° (E) 3,855 10.7 32.0°
Sets 17:39:18 0° 90° (E) 4,819 11.1 31.4°
